FW0287 Weather Reports


Display with metric or nautical units.
time (UTC)temp
F
wind
direction
speed
MPH
gust
MPH
rain 1hr
in
rain 24hr
in
rain mn
in
humidity
%
barometer
mb
20260502123032 38 178 0.0 0.0 0.00 0.00 0.00 72 1021.3
20260502121525 38 178 0.0 0.0 0.00 0.00 0.00 73 1021.3
20260502114512 38 178 0.0 0.0 0.00 0.00 0.00 71 1021.2
20260502113013 39 178 0.0 0.0 0.00 0.00 0.00 71 1021.1
20260502111521 39 178 0.0 0.0 0.00 0.00 0.00 72 1021.2
20260502110025 39 178 0.0 0.0 0.00 0.00 0.00 73 1021.3
20260502104531 39 178 0.0 0.0 0.00 0.00 0.00 72 1021.2
20260502103011 39 178 0.0 0.0 0.00 0.00 0.00 70 1021.1
20260502101516 40 178 0.0 0.0 0.00 0.00 0.00 68 1020.9
20260502091512 41 178 0.0 0.0 0.00 0.00 0.00 68 1020.6
20260502071504 44 178 0.0 0.0 0.00 0.00 0.00 66 1020.8
20260502070009 44 178 0.0 0.0 0.00 0.00 0.00 64 1020.9
20260502064515 45 178 0.0 0.0 0.00 0.00 0.00 63 1020.9
20260502063021 45 178 0.0 0.0 0.00 0.00 0.00 63 1020.7
20260502061533 45 178 0.0 0.0 0.00 0.00 0.00 63 1020.7
20260502060025 45 178 0.0 0.0 0.00 0.00 0.00 61 1020.6
20260502054507 46 178 0.0 0.0 0.00 0.00 0.00 58 1020.6
20260502053015 47 178 0.0 0.0 0.00 0.00 0.00 59 1020.5
20260502051524 47 178 0.0 0.0 0.00 0.00 0.00 57 1020.4
20260502050024 48 180 0.0 0.0 0.00 0.00 0.00 55 1020.4
20260502044524 49 180 0.0 0.0 0.00 0.00 0.00 51 1020.4
20260502043019 49 180 0.0 0.0 0.00 0.00 0.00 49 1020.4
20260502041524 50 180 0.0 0.0 0.00 0.00 0.00 47 1020.3
20260502040019 51 180 0.0 0.0 0.00 0.00 0.00 44 1020.3
20260502034524 52 180 0.0 0.0 0.00 0.00 0.00 41 1020.1
20260502033027 53 180 0.0 0.0 0.00 0.00 0.00 38 1019.8
20260502031514 54 180 0.0 0.0 0.00 0.00 0.00 37 1019.7
20260502030018 55 180 0.0 0.0 0.00 0.00 0.00 33 1019.5
20260502024522 57 180 0.0 0.0 0.00 0.00 0.00 31 1019.3
20260502023027 59 180 0.0 1.0 0.00 0.00 0.00 27 1019.3
20260502021526 60 130 0.0 5.0 0.00 0.00 0.00 27 1019.2
20260502020014 61 124 2.0 5.0 0.00 0.00 0.00 26 1019.0
20260502014519 63 64 2.0 6.0 0.00 0.00 0.00 26 1018.8
20260502013023 64 108 1.0 4.0 0.00 0.00 0.00 27 1018.8
20260502011531 65 109 2.0 5.0 0.00 0.00 0.00 27 1018.7
20260502010027 66 168 1.0 5.0 0.00 0.00 0.00 26 1018.8
20260502004514 69 184 2.0 6.0 0.00 0.00 0.00 24 1018.8
20260502003020 71 157 1.0 3.0 0.00 0.00 0.00 23 1018.8
20260502001524 71 122 1.0 8.0 0.00 0.00 0.00 24 1018.9
20260502000009 72 127 2.0 5.0 0.00 0.00 0.00 23 1019.0
20260501234515 71 123 1.0 6.0 0.00 0.00 0.00 23 1018.9
20260501233017 71 261 3.0 14.0 0.00 0.00 0.00 23 1019.0
20260501231502 71 133 2.0 9.0 0.00 0.00 0.00 22 1018.9
20260501230003 72 78 2.0 7.0 0.00 0.00 0.00 21 1019.0
20260501224507 71 136 1.0 12.0 0.00 0.00 0.00 22 1018.9
20260501223015 71 174 1.0 8.0 0.00 0.00 0.00 22 1019.4
20260501221519 71 96 3.0 8.0 0.00 0.00 0.00 20 1019.5
20260501220003 72 143 3.0 8.0 0.00 0.00 0.00 19 1019.5
20260501214506 71 157 1.0 8.0 0.00 0.00 0.00 21 1019.8
20260501213009 72 170 1.0 4.0 0.00 0.00 0.00 20 1019.8
20260501211516 72 124 1.0 7.0 0.00 0.00 0.00 20 1019.9
20260501210020 72 178 1.0 6.0 0.00 0.00 0.00 18 1019.9
20260501204505 72 174 1.0 4.0 0.00 0.00 0.00 18 1019.9
20260501203006 72 176 0.0 5.0 0.00 0.00 0.00 20 1020.0
20260501201512 71 124 1.0 5.0 0.00 0.00 0.00 18 1019.8
20260501200021 70 127 2.0 5.0 0.00 0.00 0.00 19 1019.9
20260501194524 70 152 2.0 6.0 0.00 0.00 0.00 18 1020.1
20260501193029 69 110 2.0 5.0 0.00 0.00 0.00 19 1020.0
20260501191507 69 184 0.0 3.0 0.00 0.00 0.00 19 1020.2
20260501190012 70 211 0.0 4.0 0.00 0.00 0.00 20 1020.4
20260501184524 68 176 1.0 9.0 0.00 0.00 0.00 21 1020.5
20260501183022 68 124 3.0 7.0 0.00 0.00 0.00 20 1020.6
20260501181530 68 130 0.0 3.0 0.00 0.00 0.00 21 1020.8
20260501180016 67 107 1.0 5.0 0.00 0.00 0.00 19 1020.9
20260501174533 66 269 2.0 4.0 0.00 0.00 0.00 20 1020.9
20260501173021 66 181 0.0 2.0 0.00 0.00 0.00 27 1021.1
20260501171525 64 203 0.0 3.0 0.00 0.00 0.00 27 1021.1
20260501170026 63 199 0.0 2.0 0.00 0.00 0.00 28 1021.2
20260501164510 61 129 0.0 3.0 0.00 0.00 0.00 30 1021.2
20260501163015 61 114 1.0 2.0 0.00 0.00 0.00 30 1021.2
20260501161520 60 207 0.0 2.0 0.00 0.00 0.00 33 1021.2
20260501160027 59 229 0.0 4.0 0.00 0.00 0.00 34 1021.2
20260501154528 58 147 0.0 2.0 0.00 0.00 0.00 34 1021.1
20260501153016 56 158 0.0 2.0 0.00 0.00 0.00 36 1021.1
20260501151521 56 199 0.0 0.0 0.00 0.00 0.00 37 1021.3
20260501150025 54 156 0.0 0.0 0.00 0.00 0.00 41 1021.3
20260501144504 52 156 0.0 0.0 0.00 0.00 0.00 44 1021.3
20260501143010 52 177 0.0 0.0 0.00 0.00 0.00 47 1021.3
20260501141518 50 177 0.0 0.0 0.00 0.00 0.00 50 1021.1
20260501140020 46 178 0.0 0.0 0.00 0.00 0.00 60 1021.0